Tracking 25995 objects as of 19-Aug-2022
HD Live streaming from Space Station
objects crossing your sky now

THOR ABLESTAR DEB

Track THOR ABLESTAR DEB now!
10-day predictions


NORAD ID: 516
Int'l Code: 1961-015FT
Perigee: 869.8 km
Apogee: 991.1 km
Inclination: 66.0 °
Period: 103.5 minutes
Semi major axis: 7301 km
RCS: 0.1377 m2 (medium)
Launch date: June 29, 1961
Source: United States (US)
Launch site: AIR FORCE EASTERN TEST RANGE (AFETR)

Note: This is SATELLITE DEBRIS
aabbcc
Your satellite tracking list
Your tracking list is empty




NASA's NSSDC Master Catalog

Two Line Element Set (TLE):
1 00516U 61015FT  22231.31298059 -.00000143  00000-0 -46159-4 0  9991
2 00516  65.9930  79.8925 0083114 180.6226 179.4758 13.91522700 93809
Source of the keplerian elements: AFSPC